TimeEDT,TemperatureF,Dew PointF,Humidity,Sea Level PressureIn,VisibilityMPH,Wind Direction,Wind SpeedMPH,Gust SpeedMPH,PrecipitationIn,Events,Conditions,WindDirDegrees,DateUTC
12:53 AM,27.0,21.0,78,30.01,10.0,North,11.5,-,N/A,,Clear,360,2013-03-25 04:53:00
1:53 AM,27.0,21.9,81,30.01,10.0,NNE,9.2,-,N/A,,Clear,20,2013-03-25 05:53:00
2:53 AM,27.0,23.0,85,30.01,10.0,North,9.2,-,N/A,,Scattered Clouds,10,2013-03-25 06:53:00
3:53 AM,27.0,21.0,78,30.01,10.0,NNE,10.4,-,N/A,,Clear,30,2013-03-25 07:53:00
4:53 AM,27.0,21.0,78,30.00,10.0,NNE,9.2,-,N/A,,Mostly Cloudy,20,2013-03-25 08:53:00
5:36 AM,28.4,23.0,80,29.95,10.0,NNE,9.2,-,N/A,,Overcast,20,2013-03-25 09:36:00
5:53 AM,28.0,23.0,81,30.01,10.0,North,6.9,-,N/A,,Overcast,10,2013-03-25 09:53:00
6:53 AM,28.0,24.1,85,30.02,9.0,NNE,6.9,-,N/A,,Overcast,20,2013-03-25 10:53:00
7:22 AM,28.4,24.8,86,29.97,2.5,NNE,8.1,-,0.00,Snow,Light Snow,20,2013-03-25 11:22:00
7:38 AM,28.4,24.8,86,29.98,4.0,NNE,9.2,-,0.00,Snow,Light Snow,20,2013-03-25 11:38:00
7:53 AM,28.0,25.0,88,30.03,4.0,NNE,9.2,-,0.00,,Overcast,30,2013-03-25 11:53:00
8:02 AM,28.4,24.8,86,29.98,3.0,NNE,11.5,-,0.00,Rain,Light Freezing Rain,20,2013-03-25 12:02:00
8:09 AM,26.6,24.8,93,29.98,6.0,NNE,10.4,-,0.00,Rain,Light Freezing Rain,30,2013-03-25 12:09:00
8:32 AM,26.6,24.8,93,29.99,5.0,NNE,10.4,-,0.00,,Overcast,20,2013-03-25 12:32:00
8:53 AM,27.0,24.1,89,30.04,3.0,NNE,9.2,-,0.00,Snow,Light Snow,30,2013-03-25 12:53:00
8:56 AM,26.6,24.8,93,29.99,1.8,NNE,8.1,-,0.00,Snow,Light Snow,30,2013-03-25 12:56:00
9:08 AM,26.6,24.8,93,30.00,3.0,North,11.5,-,0.00,Snow,Light Snow,10,2013-03-25 13:08:00
9:15 AM,26.6,23.0,86,30.00,7.0,NNE,9.2,-,0.00,,Overcast,20,2013-03-25 13:15:00
9:53 AM,27.0,21.9,81,30.05,10.0,NNE,10.4,-,0.00,,Mostly Cloudy,30,2013-03-25 13:53:00
10:53 AM,28.0,21.0,75,30.06,10.0,NNE,15.0,18.4,N/A,,Overcast,20,2013-03-25 14:53:00
11:53 AM,28.0,21.9,78,30.07,6.0,NE,16.1,21.9,0.00,,Haze,40,2013-03-25 15:53:00
12:53 PM,28.0,21.0,75,30.08,10.0,NNE,13.8,-,N/A,,Overcast,30,2013-03-25 16:53:00
1:53 PM,28.0,19.9,72,30.08,10.0,NNE,10.4,-,N/A,,Overcast,20,2013-03-25 17:53:00
2:53 PM,28.0,23.0,81,30.08,8.0,North,11.5,-,N/A,,Overcast,350,2013-03-25 18:53:00
3:53 PM,28.9,23.0,78,30.08,6.0,North,12.7,-,0.00,,Haze,360,2013-03-25 19:53:00
4:53 PM,28.0,24.1,85,30.09,4.0,North,10.4,18.4,0.00,Snow,Light Snow,10,2013-03-25 20:53:00
5:53 PM,28.0,21.0,75,30.10,10.0,North,12.7,-,0.00,,Overcast,10,2013-03-25 21:53:00
6:53 PM,28.0,19.9,72,30.11,10.0,NNE,10.4,-,N/A,,Mostly Cloudy,20,2013-03-25 22:53:00
7:17 PM,28.4,19.4,69,30.07,10.0,NNE,8.1,-,N/A,,Partly Cloudy,20,2013-03-25 23:17:00
7:53 PM,27.0,18.0,69,30.12,10.0,NW,5.8,-,N/A,,Clear,320,2013-03-25 23:53:00
8:53 PM,23.0,17.1,78,30.14,10.0,NW,8.1,-,N/A,,Overcast,320,2013-03-26 00:53:00
9:53 PM,27.0,21.0,78,30.15,10.0,NW,11.5,-,N/A,,Overcast,310,2013-03-26 01:53:00
10:53 PM,26.1,21.9,84,30.16,8.0,NW,9.2,-,0.00,Snow,Light Snow,320,2013-03-26 02:53:00
11:53 PM,28.0,25.0,88,30.16,9.0,WNW,12.7,-,0.00,Snow,Light Snow,300,2013-03-26 03:53:00